• Processing (Info)

  • MPEC 2016-C161: 2016 CN194

    The following Minor Planet Electronic Circular may be linked-to from your own Web pages, but must not otherwise be redistributed electronically.

    A form allowing access to any MPEC is at the bottom of this page.


    Read MPEC 2016-C160 Read MPEC 2016-C162


    M.P.E.C. 2016-C161                               Issued 2016 Feb. 13, 05:19 UT
    
         The Minor Planet Electronic Circulars contain information on unusual
             minor planets and routine data on comets.  They are published
        on behalf of Division F of the International Astronomical Union by the
              Minor Planet Center, Smithsonian Astrophysical Observatory,
                              Cambridge, MA 02138, U.S.A.
    
                 Prepared using the Tamkin Foundation Computer Network
    
                                  MPC@CFA.HARVARD.EDU
                URL https://www.minorplanetcenter.net/    ISSN 1523-6714
    
                                      2016 CN194
    
    Observations:
         K16CJ4N* C2016 02 12.22426 08 00 55.89 +35 25 12.2          19.8 VqEC161703
         K16CJ4N  C2016 02 12.22886 08 01 03.19 +35 29 04.8          20.4 VqEC161703
         K16CJ4N  C2016 02 12.23349 08 01 10.40 +35 32 47.3          19.0 VqEC161703
         K16CJ4N  C2016 02 12.23812 08 01 17.69 +35 36 39.3          18.4 VqEC161703
         K16CJ4N  C2016 02 12.25989 08 01 52.31 +35 54 29.5          19.9 VqEC161703
         K16CJ4N  C2016 02 12.26512 08 02 00.68 +35 58 48.4          19.5 VqEC161703
         K16CJ4N  C2016 02 12.27026 08 02 09.18 +36 03 04.5          18.7 VqEC161703
         K16CJ4N  C2016 02 12.27533 08 02 17.19 +36 07 10.1          19.7 VqEC161703
         K16CJ4N  C2016 02 12.34754308 04 16.04 +37 06 02.4          19.8 VtEC161H01
         K16CJ4N  C2016 02 12.34965 08 04 21.07 +37 08 09.4          19.6 VqEC161703
         K16CJ4N  C2016 02 12.35113 08 04 23.61 +37 09 24.0          19.5 VqEC161703
         K16CJ4N  C2016 02 12.35261 08 04 26.29 +37 10 35.6          19.8 VqEC161703
         K16CJ4N  C2016 02 12.35409 08 04 28.77 +37 11 47.8          19.4 VqEC161703
         K16CJ4N  C2016 02 12.35558708 04 30.05 +37 12 37.6          19.3 VtEC161H01
         K16CJ4N  C2016 02 12.36027108 04 38.27 +37 16 27.6          19.7 VtEC161H01
         K16CJ4N  C2016 02 12.36795008 04 51.83 +37 22 44.6          19.2 VtEC161H01
         K16CJ4N  C2016 02 13.15838508 38 33.70 +48 53 50.0          19.4 VtEC161H01
         K16CJ4N  C2016 02 13.16423708 38 51.00 +48 59 09.6          19.5 VtEC161H01
         K16CJ4N  C2016 02 13.17570708 39 25.02 +49 09 34.7          19.5 VtEC161H01
         K16CJ4N  C2016 02 13.17952008 39 36.36 +49 13 01.9          19.1 VtEC161H01
    
    Observer details:
    703 Catalina Sky Survey.  Observer G. J. Leonard.  Measurers E. J. Christensen,
        D. C. Fuls, A. R. Gibbs, A. D. Grauer, J. A. Johnson, R. A. Kowalski,
        S. M. Larson, G. J. Leonard, R. G. Matheny, R. L. Seaman, F. C. Shelly.
        0.68-m Schmidt + CCD.
    H01 Magdalena Ridge Observatory, Socorro.  Observers W. H. Ryan, E. V. Ryan.
        Measurer W. H. Ryan.  2.4-m f/8.9 reflector + CCD.
    
    Orbital elements:
    2016 CN194                                               Earth MOID = 0.0148 AU
    Epoch 2016 Jan. 13.0 TT = JDT 2457400.5                 MPC
    M 335.02586              (2000.0)            P               Q
    n   0.50963144     Peri.   23.23078     -0.95797393     -0.26156519
    a   1.5522628      Node   140.99893     +0.22496190     -0.93977492
    e   0.3672469      Incl.   10.78551     +0.17798340     -0.22001535
    P   1.93           H   27.0           G   0.15           U   7
    Residuals in seconds of arc
    160212 703  0.4+  0.0     160212 703  0.4+  0.7-    160212 H01  0.1+  0.2-
    160212 703 (1.2+  5.6+)   160212 H01  0.1+  0.4-    160212 H01  0.0   0.3-
    160212 703  0.1+  0.3-    160212 703  0.4-  0.2-    160213 H01  0.1-  0.2-
    160212 703 (0.1-  3.3+)   160212 703  0.6-  1.6+    160213 H01  0.1-  0.0
    160212 703  0.1-  0.2-    160212 703  0.8+  0.4+    160213 H01  0.1+  0.2+
    160212 703  0.3-  0.8+    160212 703  0.3-  0.2-    160213 H01  0.1+  0.0
    160212 703 (2.5+  3.6+)   160212 H01  0.0   0.2-
    
    Ephemeris:
    2016 CN194               a,e,i = 1.55, 0.37, 11                  q = 0.9822
    Date    TT    R. A. (2000) Decl.     Delta      r     Elong.  Phase     V
    2016 01 14    06 42 03.3 -19 13 31   0.1501  1.0981   137.0    37.7    24.6
    ...
    2016 01 29    06 42 50.2 -16 04 45   0.07658 1.0402   134.8    42.2    23.2
    ...
    2016 02 06    06 55 44.3 -05 47 55   0.03954 1.0162   139.2    39.4    21.6
    ...
    2016 02 12    07 54 31.7 +32 24 57   0.01740 1.0021   149.9    29.6    19.5
    2016 02 13    08 30 06.4 +46 31 21   0.01592 1.0001   143.8    35.7    19.5
    2016 02 14    09 38 26.3 +60 38 56   0.01581 0.9982   132.7    46.7    19.8
    ...
    2016 02 20    17 13 26.8 +51 59 23   0.03426 0.9888    89.4    88.6    22.8
    ...
    2016 02 28    17 54 10.0 +39 17 36   0.06957 0.9824    81.4    94.5    24.5
    ...
    2016 03 14    18 10 45.1 +32 59 12   0.1346  0.9898    84.2    88.0    25.7
    
    A. U. Tomatic                (C) Copyright 2016 MPC           M.P.E.C. 2016-C161
    

    Read MPEC 2016-C160 Read MPEC 2016-C162


    MPEC number:

    Enter an MPEC number in one of the following forms:

    • 1997-B01 (the full form)
    • J97B01 (the packed version of the full form)
    • B01 (the abbreviated form)